This is the latest recevied weather packets stored in our database for station/object KF0ZH. If no packets are shown the sender has not sent any weather packets the latest 10 day(s).
| Time | Temp. | Humidity | Pressure | Rain* | Wind** | Luminosity | Snow |
|---|---|---|---|---|---|---|---|
| 1777475518 | 8.89° C | 56% | 1018.2 hPa | 0 mm | 3.58 m/s, 358° | - | - |
| 1777475218 | 8.89° C | 60% | 1018.2 hPa | 0 mm | 0 m/s | - | - |
| 1777474918 | 8.33° C | 59% | 1018.1 hPa | 0 mm | 0 m/s | - | - |
| 1777474618 | 8.33° C | 59% | 1018.2 hPa | 0 mm | 0 m/s | - | - |
| 1777474322 | 7.78° C | 59% | 1018.3 hPa | 0 mm | 0.89 m/s, 350° | - | - |
| 1777474019 | 7.78° C | 59% | 1018.3 hPa | 0 mm | 1.79 m/s, 344° | - | - |
| 1777473718 | 7.78° C | 60% | 1018.3 hPa | 0 mm | 1.79 m/s, 53° | - | - |
| 1777473419 | 7.78° C | 62% | 1018.5 hPa | 0 mm | 0 m/s | - | - |
| 1777473121 | 7.78° C | 64% | 1018.5 hPa | 0 mm | 0 m/s | - | - |
| 1777472520 | 7.22° C | 66% | 1018.7 hPa | 0 mm | 2.68 m/s, 341° | - | - |
| 1777471919 | 7.22° C | 66% | 1018.6 hPa | 0 mm | 1.79 m/s, 324° | - | - |
| 1777471620 | 7.22° C | 67% | 1018.6 hPa | 0 mm | 0.45 m/s, 351° | - | - |
| 1777471319 | 7.22° C | 69% | 1018.5 hPa | 0 mm | 0 m/s | - | - |
| 1777471019 | 7.22° C | 70% | 1018.6 hPa | 0 mm | 0 m/s | - | - |
| 1777470420 | 6.67° C | 70% | 1018.6 hPa | 0 mm | 2.24 m/s, 338° | - | - |
| 1777470119 | 6.67° C | 70% | 1018.5 hPa | 0 mm | 0 m/s | - | - |
| 1777469819 | 6.67° C | 72% | 1018.3 hPa | 0 mm | 0 m/s | - | - |
| 1777469519 | 6.67° C | 72% | 1018.5 hPa | 0 mm | 0 m/s | - | - |
| 1777469218 | 6.67° C | 74% | 1018.5 hPa | 0 mm | 0 m/s | - | - |
| 1777468919 | 6.11° C | 74% | 1018.6 hPa | 0 mm | 0 m/s | - | - |
| 1777468618 | 6.11° C | 74% | 1018.7 hPa | 0 mm | 0 m/s | - | - |
| 1777468319 | 6.11° C | 75% | 1018.7 hPa | 0 mm | 0 m/s | - | - |
| 1777468019 | 6.11° C | 75% | 1018.7 hPa | 0 mm | 0 m/s | - | - |
| 1777467719 | 5.56° C | 76% | 1018.6 hPa | 0 mm | 0 m/s | - | - |
| 1777467419 | 5.56° C | 77% | 1018.6 hPa | 0 mm | 0 m/s | - | - |
* Rain latest hour (hover to see other rain measurements)
** Current wind speed in m/s (hover to see current wind gust speed)